Starlink 1984

decayed
NORAD ID: 47581 Int'l Des: 2021-009 Owner: SPXS Country: US Constellation: starlink
LEOCIRCULAR
Gruppe

Über Starlink 1984

Beschreibung wird geladen...

Höhenverlauf

Altitude vs Time

uPlot chart will show altitude changes over time

Zweizeiliger Elementsatz

1 47581U 21009AK 24314.60043030 .07814071 12198-4 14257-2 0 9991
2 47581 53.0259 313.1163 0006067 38.7260 66.2199 16.31583757209419
Epoch: 9. Nov. 2024 • Age: 8611 hours

Aktueller Status

Position data unavailable
Startdatum 4. Feb. 2021
Alter 4.7 years
Verglühungsdatum 9. Nov. 2024
Typ internet

Technische Details

Klassifizierung Payload
Masse 260.00 kg
Trockenmasse 248.00 kg
Gesamtmasse 260.00 kg
Länge 0.20 m
Durchmesser 2.80 m
Spannweite 9.00 m
Form Box + pan
Hersteller SPXS
Bus-Typ Starlink
Phasenstatus Unknown Transfer Status
Besitzer/Staat SPXS/US

Große Konstellationen

Loading constellations...